Kilmarnock, Virginia, United States (22482)
Lat: 37.71N, Lon: 76.38W
Wx Zone: VAZ078
Local Info
Past Weather Observations for Yesterday

NOTE: This archive is for the closest National Weather Service station to Kilmarnock. Information may differ from the station used for current weather conditions.

Click here for Long-term Archive

Time Weather Temperature Dewpoint Humidity Pressure Winds Precip Visibility
23:55
Overcast
39°F / 4°C 36°F / 2°C 87% 29.65 in
(1004 mb)
NE 3.5 mph
(NE 6 kph)
- 10SM
23:35
Overcast
41°F / 5°C 36°F / 2°C 81% 29.65 in
(1004 mb)
Calm - 10SM
23:15
Overcast
41°F / 5°C 36°F / 2°C 81% 29.65 in
(1004 mb)
ESE 4.6 mph
(ESE 7 kph)
- 10SM
22:55
Overcast
41°F / 5°C 36°F / 2°C 81% 29.68 in
(1005 mb)
E 5.8 mph
(E 9 kph)
- 10SM
22:35
Overcast
41°F / 5°C 36°F / 2°C 81% 29.68 in
(1005 mb)
E 5.8 mph
(E 9 kph)
- 10SM
22:15
Overcast
39°F / 4°C 36°F / 2°C 87% 29.68 in
(1005 mb)
E 4.6 mph
(E 7 kph)
- 10SM
21:55
Overcast
39°F / 4°C 36°F / 2°C 87% 29.71 in
(1006 mb)
E 3.5 mph
(E 6 kph)
- 10SM
21:35
Overcast
39°F / 4°C 36°F / 2°C 87% 29.71 in
(1006 mb)
E 4.6 mph
(E 7 kph)
- 10SM
21:15
Overcast
39°F / 4°C 36°F / 2°C 87% 29.71 in
(1006 mb)
E 4.6 mph
(E 7 kph)
- 10SM
20:55
Mostly Cloudy
39°F / 4°C 34°F / 1°C 81% 29.71 in
(1006 mb)
E 5.8 mph
(E 9 kph)
- 10SM
20:35
Partly Cloudy
39°F / 4°C 34°F / 1°C 81% 29.71 in
(1006 mb)
E 6.9 mph
(E 11 kph)
- 10SM
20:15
Mostly Cloudy
39°F / 4°C 34°F / 1°C 81% 29.74 in
(1007 mb)
ESE 8.1 mph
(ESE 13 kph)
- 10SM
19:55
Partly Cloudy
39°F / 4°C 34°F / 1°C 81% 29.74 in
(1007 mb)
SE 8.1 mph
(SE 13 kph)
- 10SM
19:35
Mostly Cloudy
41°F / 5°C 34°F / 1°C 76% 29.74 in
(1007 mb)
ESE 8.1 mph
(ESE 13 kph)
- 10SM
19:15
Overcast
41°F / 5°C 34°F / 1°C 76% 29.74 in
(1007 mb)
E 6.9 mph
(E 11 kph)
- 10SM
18:55
Overcast
41°F / 5°C 34°F / 1°C 76% 29.74 in
(1007 mb)
SE 6.9 mph
(SE 11 kph)
- 10SM
18:35
Overcast
41°F / 5°C 32°F / 0°C 70% 29.74 in
(1007 mb)
SE 6.9 mph
(SE 11 kph)
- 10SM
18:15
Overcast
41°F / 5°C 32°F / 0°C 70% 29.74 in
(1007 mb)
ESE 8.1 mph
(ESE 13 kph)
- 10SM
17:55
Overcast
41°F / 5°C 32°F / 0°C 70% 29.74 in
(1007 mb)
SE 6.9 mph
(SE 11 kph)
- 10SM
17:35
Overcast
41°F / 5°C 32°F / 0°C 70% 29.71 in
(1006 mb)
ESE 8.1 mph
(ESE 13 kph)
- 10SM
17:15
Overcast
41°F / 5°C 32°F / 0°C 70% 29.71 in
(1006 mb)
SE 5.8 mph
(SE 9 kph)
- 10SM
16:55
Mostly Cloudy
43°F / 6°C 32°F / 0°C 66% 29.71 in
(1006 mb)
ESE 8.1 mph
(ESE 13 kph)
- 10SM
16:35
Overcast
45°F / 7°C 32°F / 0°C 61% 29.71 in
(1006 mb)
SE 5.8 mph
(SE 9 kph)
- 10SM
16:15
Overcast
45°F / 7°C 32°F / 0°C 61% 29.71 in
(1006 mb)
SE 4.6 mph
(SE 7 kph)
- 10SM
15:55
Overcast
46°F / 8°C 30°F / -1°C 53% 29.71 in
(1006 mb)
SE 6.9 mph
(SE 11 kph)
- 10SM
15:35
Overcast
46°F / 8°C 32°F / 0°C 57% 29.71 in
(1006 mb)
SE 4.6 mph
(SE 7 kph)
- 10SM
15:15
Overcast
46°F / 8°C 32°F / 0°C 57% 29.71 in
(1006 mb)
SSE 4.6 mph
(SSE 7 kph)
- 10SM
14:55
Mostly Cloudy
46°F / 8°C 28°F / -2°C 50% 29.71 in
(1006 mb)
SSE 4.6 mph
(SSE 7 kph)
- 10SM
14:35
Mostly Cloudy
46°F / 8°C 28°F / -2°C 50% 29.71 in
(1006 mb)
ESE 3.5 mph
(ESE 6 kph)
- 10SM
14:15
Mostly Cloudy
46°F / 8°C 28°F / -2°C 50% 29.71 in
(1006 mb)
SE 4.6 mph
(SE 7 kph)
- 10SM
13:55
Partly Cloudy
46°F / 8°C 28°F / -2°C 50% 29.74 in
(1007 mb)
SSE 3.5 mph
(SSE 6 kph)
- 10SM
13:35
Clear
46°F / 8°C 28°F / -2°C 50% 29.74 in
(1007 mb)
Calm - 10SM
13:15
Clear
46°F / 8°C 28°F / -2°C 50% 29.74 in
(1007 mb)
Calm - 10SM
12:55
Clear
45°F / 7°C 28°F / -2°C 53% 29.74 in
(1007 mb)
SW 3.5 mph
(SW 6 kph)
- 10SM
12:35
Clear
46°F / 8°C 28°F / -2°C 50% 29.74 in
(1007 mb)
SW 5.8 mph
(SW 9 kph)
- 10SM
12:15
Clear
45°F / 7°C 28°F / -2°C 53% 29.74 in
(1007 mb)
SSE 6.9 mph
(SSE 11 kph)
- 10SM
11:55
Clear
46°F / 8°C 28°F / -2°C 50% 29.77 in
(1008 mb)
SW 4.6 mph
(SW 7 kph)
- 10SM
11:35
Clear
45°F / 7°C 28°F / -2°C 53% 29.8 in
(1009 mb)
ESE 4.6 mph
(ESE 7 kph)
- 10SM
11:15
Clear
45°F / 7°C 28°F / -2°C 53% 29.8 in
(1009 mb)
ESE 4.6 mph
(ESE 7 kph)
- 10SM
10:55
Clear
45°F / 7°C 27°F / -3°C 49% 29.8 in
(1009 mb)
E 5.8 mph
(E 9 kph)
- 10SM
10:35
Clear
45°F / 7°C 27°F / -3°C 49% 29.8 in
(1009 mb)
Calm - 10SM
10:15
Clear
43°F / 6°C 25°F / -4°C 49% 29.8 in
(1009 mb)
NE 3.5 mph
(NE 6 kph)
- 10SM
09:55
Clear
43°F / 6°C 25°F / -4°C 49% 29.8 in
(1009 mb)
NNE 6.9 mph
(NNE 11 kph)
- 10SM
09:35
Clear
41°F / 5°C 23°F / -5°C 49% 29.8 in
(1009 mb)
NNE 8.1 mph
(NNE 13 kph)
- 10SM
09:15
Clear
39°F / 4°C 23°F / -5°C 52% 29.8 in
(1009 mb)
NNE 5.8 mph
(NNE 9 kph)
- 10SM
08:55
Clear
37°F / 3°C 23°F / -5°C 56% 29.8 in
(1009 mb)
NNW 4.6 mph
(NNW 7 kph)
- 10SM
08:35
Clear
37°F / 3°C 23°F / -5°C 56% 29.83 in
(1010 mb)
NNW 4.6 mph
(NNW 7 kph)
- 10SM
08:15
Clear
36°F / 2°C 23°F / -5°C 60% 29.83 in
(1010 mb)
NW 4.6 mph
(NW 7 kph)
- 10SM
07:55
Clear
34°F / 1°C 23°F / -5°C 65% 29.83 in
(1010 mb)
NW 3.5 mph
(NW 6 kph)
- 10SM
07:35
Clear
34°F / 1°C 23°F / -5°C 65% 29.83 in
(1010 mb)
NW 5.8 mph
(NW 9 kph)
- 10SM
07:15
Clear
34°F / 1°C 23°F / -5°C 65% 29.8 in
(1009 mb)
NW 5.8 mph
(NW 9 kph)
- 10SM
06:55
Clear
34°F / 1°C 23°F / -5°C 65% 29.8 in
(1009 mb)
WNW 5.8 mph
(WNW 9 kph)
- 10SM
06:35
Clear
34°F / 1°C 23°F / -5°C 65% 29.8 in
(1009 mb)
NW 4.6 mph
(NW 7 kph)
- 10SM
06:15
Clear
34°F / 1°C 23°F / -5°C 65% 29.8 in
(1009 mb)
WNW 3.5 mph
(WNW 6 kph)
- 10SM
05:55
Clear
34°F / 1°C 23°F / -5°C 65% 29.8 in
(1009 mb)
NW 4.6 mph
(NW 7 kph)
- 10SM
05:35
Clear
36°F / 2°C 23°F / -5°C 60% 29.77 in
(1008 mb)
NW 3.5 mph
(NW 6 kph)
- 10SM
05:15
Clear
36°F / 2°C 23°F / -5°C 60% 29.77 in
(1008 mb)
NW 5.8 mph
(NW 9 kph)
- 10SM
04:55
Clear
36°F / 2°C 23°F / -5°C 60% 29.77 in
(1008 mb)
NW 4.6 mph
(NW 7 kph)
- 10SM
04:35
Clear
37°F / 3°C 23°F / -5°C 56% 29.74 in
(1007 mb)
NW 4.6 mph
(NW 7 kph)
- 10SM
04:15
Clear
37°F / 3°C 23°F / -5°C 56% 29.74 in
(1007 mb)
NW 4.6 mph
(NW 7 kph)
- 10SM
03:55
Clear
37°F / 3°C 23°F / -5°C 56% 29.74 in
(1007 mb)
NW 4.6 mph
(NW 7 kph)
- 10SM
03:35
Clear
39°F / 4°C 21°F / -6°C 48% 29.74 in
(1007 mb)
NW 6.9 mph
(NW 11 kph)
- 10SM
03:15
Clear
39°F / 4°C 21°F / -6°C 48% 29.74 in
(1007 mb)
NW 8.1 mph
(NW 13 kph)
- 10SM
02:55
Clear
39°F / 4°C 21°F / -6°C 48% 29.74 in
(1007 mb)
NW 8.1 mph
(NW 13 kph)
- 10SM
02:35
Clear
39°F / 4°C 21°F / -6°C 48% 29.74 in
(1007 mb)
NW 6.9 mph
(NW 11 kph)
- 10SM
02:15
Clear
41°F / 5°C 21°F / -6°C 45% 29.74 in
(1007 mb)
NNW 4.6 mph
(NNW 7 kph)
- 10SM
01:55
Clear
41°F / 5°C 21°F / -6°C 45% 29.74 in
(1007 mb)
NNW 9.2 mph
(NNW 15 kph)
- 10SM
01:35
Clear
41°F / 5°C 21°F / -6°C 45% 29.74 in
(1007 mb)
NNW 6.9 mph
(NNW 11 kph)
- 10SM
01:15
Clear
41°F / 5°C 23°F / -5°C 49% 29.74 in
(1007 mb)
NNW 9.2 mph
(NNW 15 kph)
- 10SM
00:55
Clear
41°F / 5°C 23°F / -5°C 49% 29.74 in
(1007 mb)
NNW 8.1 mph
(NNW 13 kph)
- 10SM
00:35
Clear
39°F / 4°C 23°F / -5°C 52% 29.77 in
(1008 mb)
NNW 8.1 mph
(NNW 13 kph)
- 10SM
00:15
Clear
39°F / 4°C 23°F / -5°C 52% 29.77 in
(1008 mb)
NNW 6.9 mph
(NNW 11 kph)
- 10SM
Time Weather Temperature Dewpoint Humidity Pressure Winds Precip Visibility


Weather for websites

WeatherForYou.com, LLC is not responsible for any damages or problems caused by this service. Current weather conditions are obtained from the closest station including government and personal stations which may have varying degrees of accuracy. Weather forecasts are derived from the NOAA NDFD. Like all things, this site belongs to Jesus Christ... He just trusts us to maintain it. If you have any questions or comments email webmaster@weatherforyou.com

Copyright © 2016, WeatherForYou.com LLC. All rights reserved.